Location: Agadir Irigdalene
(31.2522°N, 8.7797°W)
Time: 06:39:41
(UTC+00:00)

Cosmos 1656 Rocket - Pass Details

Date: 01 December 2020
Orbit: 796 x 846 km, 71.1° (Epoch: 25 January)

Event Time Altitude Azimuth Distance (km) Brightness Sun altitude
Rises 18:48:51 0° 350° (N) 3,387 6.8 -16.2°
Reaches altitude 10° 18:51:32 10° 359° (N) 2,442 5.9 -16.7°
Maximum altitude 18:56:37 35° 65° (ENE) 1,300 4.1 -17.8°
Enters shadow 18:58:49 26° 107° (ESE) 1,572 4.6 -18.2°
